Location: Asheville, NC
(35.6000°N, 82.5500°W)
Time: 20:09:35
(UTC-04:00)

Vanguard 2 - Pass Details

Date: 12 March 2018
Orbit: 554 x 2939 km, 32.9° (Epoch: 24 June)

Event Time Altitude Azimuth Distance (km) Brightness Sun altitude
Rises 11:36:56 0° 230° (SW) 5,473 11.9 41.7°
Reaches altitude 10° 11:40:11 10° 226° (SW) 4,743 11.7 42.2°
Maximum altitude 11:54:17 57° 152° (SSE) 3,127 12.6 44.0°
Drops below altitude 10° 12:11:34 10° 81° (E) 5,707 12.3 46.1°
Sets 12:15:55 0° 77° (ENE) 6,610 12.5 46.5°
